When you browse on this site, cookies collect data to enhance your experience and personalize the content and advertising you see.
Visit our Privacy Policy to learn more. By continuing to use the site, you agree to this use of cookies and data.
  • In Romania
  • List of Countries
  • For 7 days
  • Water Temperature
  • Weather Map
  • Weather Widgets
  • user-avatar
    Login

    Hourly Weather Ho Chi Minh

    Today, 12 December, Thursday

    Time Temperature Precipitation Wind Pressure Humidity
    00:00 +25°C° 0 mm 1 mps 759 mmHg 84%
    01:00 +23°C° 0 mm 0 mps 759 mmHg 83%
    02:00 +24°C° 0 mm 1 mps 758 mmHg 84%
    03:00 +24°C° 0 mm 1 mps 758 mmHg 85%
    04:00 +24°C° 0 mm 1 mps 757 mmHg 86%
    05:00 +24°C° 0 mm 1 mps 758 mmHg 85%
    06:00 +24°C° 0 mm 1 mps 758 mmHg 84%
    07:00 +25°C° 0 mm 1 mps 759 mmHg 84%
    08:00 +27°C° 0 mm 1 mps 759 mmHg 77%
    09:00 +28°C° 0 mm 1 mps 759 mmHg 69%
    10:00 +30°C° 0 mm 1 mps 760 mmHg 61%
    11:00 +31°C° 0 mm 1 mps 759 mmHg 58%
    12:00 +32°C° 0 mm 1 mps 758 mmHg 55%
    13:00 +34°C° 0 mm 2 mps 758 mmHg 49%
    14:00 +32°C° 0 mm 2 mps 757 mmHg 53%
    15:00 +33°C° 0 mm 3 mps 757 mmHg 57%
    16:00 +31°C° 0 mm 3 mps 757 mmHg 61%
    17:00 +29°C° 0 mm 3 mps 757 mmHg 67%
    18:00 +28°C° 0 mm 4 mps 758 mmHg 72%
    19:00 +27°C° 0 mm 4 mps 758 mmHg 77%
    20:00 +26°C° 0 mm 3 mps 759 mmHg 78%
    21:00 +26°C° 0 mm 2 mps 759 mmHg 79%
    22:00 +26°C° 0 mm 2 mps 759 mmHg 80%
    23:00 +26°C° 0 mm 1 mps 759 mmHg 81%

    Tomorrow, 13 December, Friday

    Time Temperature Precipitation Wind Pressure Humidity
    00:00 +25°C° 0 mm 1 mps 759 mmHg 81%
    01:00 +25°C° 0 mm 1 mps 759 mmHg 82%
    02:00 +25°C° 0 mm 1 mps 759 mmHg 82%
    03:00 +25°C° 0 mm 2 mps 758 mmHg 82%
    04:00 +24°C° 0 mm 2 mps 758 mmHg 81%
    05:00 +24°C° 0 mm 2 mps 759 mmHg 79%
    06:00 +24°C° 0 mm 2 mps 759 mmHg 77%
    07:00 +24°C° 0 mm 2 mps 760 mmHg 75%
    08:00 +26°C° 0 mm 2 mps 760 mmHg 69%
    09:00 +28°C° 0 mm 2 mps 760 mmHg 63%
    10:00 +30°C° 0 mm 2 mps 760 mmHg 56%
    11:00 +31°C° 0 mm 2 mps 759 mmHg 54%
    12:00 +32°C° 0 mm 2 mps 759 mmHg 51%
    13:00 +34°C° 0 mm 2 mps 758 mmHg 49%
    14:00 +34°C° 0 mm 2 mps 758 mmHg 50%
    15:00 +34°C° 0 mm 2 mps 757 mmHg 51%
    16:00 +32°C° 0 mm 2 mps 757 mmHg 52%
    17:00 +31°C° 0 mm 2 mps 757 mmHg 57%
    18:00 +29°C° 0 mm 2 mps 758 mmHg 62%
    19:00 +28°C° 0 mm 2 mps 758 mmHg 66%
    20:00 +27°C° 0 mm 2 mps 759 mmHg 68%
    21:00 +27°C° 0 mm 1 mps 759 mmHg 70%
    22:00 +27°C° 0 mm 1 mps 759 mmHg 72%
    23:00 +26°C° 0 mm 1 mps 759 mmHg 74%

    Day after tomorrow, 14 December, Saturday

    Time Temperature Precipitation Wind Pressure Humidity
    00:00 +26°C° 0 mm 1 mps 759 mmHg 75%
    01:00 +26°C° 0 mm 1 mps 759 mmHg 77%
    02:00 +25°C° 0 mm 1 mps 758 mmHg 77%
    03:00 +25°C° 0 mm 1 mps 758 mmHg 78%
    04:00 +25°C° 0 mm 1 mps 758 mmHg 78%
    05:00 +25°C° 0 mm 1 mps 759 mmHg 78%
    06:00 +25°C° 0 mm 1 mps 759 mmHg 77%
    07:00 +23°C° 0 mm 0 mps 760 mmHg 77%
    08:00 +27°C° 0 mm 1 mps 760 mmHg 70%
    09:00 +29°C° 0 mm 1 mps 760 mmHg 63%
    10:00 +31°C° 0 mm 1 mps 760 mmHg 56%
    11:00 +32°C° 0 mm 1 mps 759 mmHg 52%
    12:00 +34°C° 0 mm 2 mps 758 mmHg 48%
    13:00 +35°C° 0 mm 2 mps 757 mmHg 44%
    14:00 +35°C° 0 mm 2 mps 757 mmHg 46%
    15:00 +34°C° 0 mm 3 mps 756 mmHg 49%
    16:00 +34°C° 0 mm 3 mps 756 mmHg 52%
    17:00 +31°C° 0 mm 3 mps 757 mmHg 59%
    18:00 +30°C° 0 mm 3 mps 757 mmHg 66%
    19:00 +28°C° 0 mm 2 mps 758 mmHg 72%
    20:00 +28°C° 0 mm 2 mps 758 mmHg 74%
    21:00 +27°C° 0 mm 2 mps 758 mmHg 75%
    22:00 +27°C° 0 mm 2 mps 759 mmHg 77%
    23:00 +27°C° 0 mm 2 mps 758 mmHg 77%

    15 December, Sunday

    Time Temperature Precipitation Wind Pressure Humidity
    00:00 +26°C° 0 mm 2 mps 758 mmHg 78%
    01:00 +26°C° 0 mm 2 mps 758 mmHg 78%
    02:00 +26°C° 0 mm 2 mps 758 mmHg 78%
    03:00 +25°C° 0 mm 2 mps 757 mmHg 78%
    04:00 +25°C° 0 mm 1 mps 757 mmHg 78%
    05:00 +25°C° 0 mm 1 mps 758 mmHg 78%
    06:00 +25°C° 0 mm 1 mps 758 mmHg 78%
    07:00 +25°C° 0 mm 1 mps 759 mmHg 77%
    08:00 +28°C° 0 mm 1 mps 759 mmHg 70%
    09:00 +30°C° 0 mm 1 mps 759 mmHg 62%
    10:00 +32°C° 0 mm 1 mps 759 mmHg 55%
    11:00 +33°C° 0 mm 1 mps 758 mmHg 51%
    12:00 +35°C° 0 mm 2 mps 757 mmHg 47%
    13:00 +36°C° 0 mm 2 mps 757 mmHg 42%
    14:00 +35°C° 0 mm 3 mps 756 mmHg 45%
    15:00 +35°C° 0 mm 3 mps 756 mmHg 48%
    16:00 +34°C° 0 mm 4 mps 755 mmHg 50%
    17:00 +33°C° 0.1 mm 3 mps 756 mmHg 55%
    18:00 +30°C° 0.1 mm 3 mps 756 mmHg 60%
    19:00 +29°C° 0.1 mm 2 mps 756 mmHg 65%
    20:00 +29°C° 0 mm 2 mps 757 mmHg 66%
    21:00 +28°C° 0 mm 2 mps 757 mmHg 67%
    22:00 +28°C° 0 mm 1 mps 757 mmHg 67%
    23:00 +28°C° 0 mm 1 mps 757 mmHg 69%

    16 December, Monday

    Time Temperature Precipitation Wind Pressure Humidity
    00:00 +27°C° 0 mm 2 mps 757 mmHg 71%
    01:00 +27°C° 0 mm 2 mps 757 mmHg 72%
    02:00 +27°C° 0 mm 1 mps 756 mmHg 73%
    03:00 +27°C° 0 mm 1 mps 756 mmHg 73%
    04:00 +26°C° 0 mm 1 mps 756 mmHg 74%
    05:00 +26°C° 0 mm 1 mps 756 mmHg 75%
    06:00 +26°C° 0 mm 1 mps 757 mmHg 75%
    07:00 +26°C° 0 mm 1 mps 757 mmHg 75%
    08:00 +28°C° 0 mm 1 mps 757 mmHg 67%
    09:00 +31°C° 0 mm 1 mps 757 mmHg 60%
    10:00 +33°C° 0 mm 1 mps 757 mmHg 52%
    11:00 +35°C° 0 mm 2 mps 757 mmHg 48%
    12:00 +36°C° 0 mm 2 mps 756 mmHg 44%
    13:00 +37°C° 0 mm 3 mps 756 mmHg 40%
    14:00 +36°C° 0 mm 3 mps 755 mmHg 43%
    15:00 +36°C° 0 mm 3 mps 755 mmHg 46%
    16:00 +35°C° 0 mm 4 mps 755 mmHg 48%
    17:00 +34°C° 0 mm 3 mps 755 mmHg 54%
    18:00 +31°C° 0 mm 3 mps 756 mmHg 60%
    19:00 +29°C° 0 mm 2 mps 756 mmHg 66%
    20:00 +29°C° 0 mm 2 mps 757 mmHg 68%
    21:00 +28°C° 0 mm 2 mps 757 mmHg 70%
    22:00 +28°C° 0 mm 2 mps 757 mmHg 71%
    23:00 +28°C° 0 mm 2 mps 757 mmHg 72%

    17 December, Tuesday

    Time Temperature Precipitation Wind Pressure Humidity
    00:00 +27°C° 0 mm 1 mps 757 mmHg 73%
    01:00 +27°C° 0 mm 1 mps 757 mmHg 73%
    02:00 +27°C° 0 mm 1 mps 756 mmHg 75%
    03:00 +26°C° 0 mm 1 mps 756 mmHg 76%
    04:00 +26°C° 0 mm 2 mps 756 mmHg 77%
    05:00 +26°C° 0 mm 1 mps 756 mmHg 77%
    06:00 +26°C° 0 mm 1 mps 757 mmHg 77%
    07:00 +26°C° 0 mm 1 mps 757 mmHg 77%
    08:00 +29°C° 0 mm 1 mps 757 mmHg 70%
    09:00 +29°C° 0 mm 0 mps 758 mmHg 63%
    10:00 +31°C° 0 mm 0 mps 758 mmHg 55%
    11:00 +34°C° 0 mm 1 mps 757 mmHg 51%
    12:00 +35°C° 0 mm 2 mps 757 mmHg 46%
    13:00 +36°C° 0 mm 2 mps 756 mmHg 41%
    14:00 +36°C° 0 mm 3 mps 756 mmHg 42%
    15:00 +35°C° 0 mm 3 mps 755 mmHg 43%
    16:00 +35°C° 0 mm 4 mps 755 mmHg 45%
    17:00 +33°C° 0 mm 4 mps 755 mmHg 51%
    18:00 +30°C° 0 mm 3 mps 756 mmHg 57%
    19:00 +28°C° 0 mm 3 mps 756 mmHg 64%
    20:00 +28°C° 0 mm 3 mps 757 mmHg 66%
    21:00 +27°C° 0 mm 3 mps 757 mmHg 69%
    22:00 +27°C° 0 mm 2 mps 758 mmHg 71%
    23:00 +27°C° 0 mm 2 mps 758 mmHg 73%
    Show more